Weather History for Needles, CA

Change the Weather History Date:

Sunday, November 20, 2011

  Actual Average Record
Temperature  
Mean Temperature 62 °F -  
Max Temperature 68 °F 70 °F 84 °F (1950)
Min Temperature 55 °F 46 °F 34 °F (1985)
Degree Days  
Heating Degree Days 4    
Growing Degree Days 12 (Base 50)    
Moisture  
Dew Point 39 °F    
Average Humidity 44    
Maximum Humidity 53    
Minimum Humidity 37    
Precipitation  
Precipitation 0.00 in - - ()
Sea Level Pressure  
Sea Level Pressure 29.87 in    
Wind  
Wind Speed 8 mph (SW)    
Max Wind Speed 14 mph    
Max Gust Speed -    
Visibility 10 miles    
Events      
Averages and records for this station are not official NWS values.
T = Trace of Precipitation, MM = Missing Value Source: NWS Daily Summary

Daily Weather History Graph

Daily Weather History Graph

Search for Another Location

Airport:

Trip Planner

Search our weather history database for the weather conditions in past years. The results will help you decide how hot, cold, wet, or windy it might be!

Date:

Astronomy

Nov. 20, 2011 Rise Set
Actual Time 6:17 AM PST 4:30 PM PST
Civil Twilight 5:50 AM PST 4:57 PM PST
Nautical Twilight 5:19 AM PST 5:28 PM PST
Astronomical Twilight 4:49 AM PST 5:58 PM PST
Moon 1:01 AM PST (11/20) 1:12 PM PST (11/20)
Length of Visible Light 11h 07m
Length of Day
10h 13m
Waning Crescent, 26% of the Moon is Illuminated
Nov 20
Waning Crescent
Nov 24
New
Dec 2
First Quarter
Dec 10
Full
Dec 17
Last Quarter

Hourly Weather History & Observations

Time (PST) Temp. Dew Point Humidity Pressure Visibility Wind Dir Wind Speed Gust Speed Precip Events Conditions
12:56 AM 57.9 °F 37.9 °F 47% 29.80 in 10.0 mi SW 8.1 mph - N/A   Clear
1:56 AM 55.9 °F 39.0 °F 53% 29.81 in 10.0 mi West 9.2 mph - N/A   Clear
2:56 AM 55.9 °F 39.0 °F 53% 29.82 in 10.0 mi West 10.4 mph - N/A   Clear
3:56 AM 55.9 °F 37.9 °F 51% 29.82 in 10.0 mi West 9.2 mph - N/A   Overcast
4:56 AM 57.0 °F 37.9 °F 49% 29.83 in 10.0 mi West 6.9 mph - N/A   Overcast
5:56 AM 55.9 °F 37.9 °F 51% 29.86 in 10.0 mi WSW 8.1 mph - N/A   Overcast
6:56 AM 55.0 °F 37.9 °F 53% 29.89 in 10.0 mi West 9.2 mph - N/A   Scattered Clouds
7:56 AM 60.1 °F 39.9 °F 47% 29.91 in 10.0 mi SW 3.5 mph - N/A   Mostly Cloudy
8:56 AM 62.1 °F 39.9 °F 44% 29.91 in 10.0 mi SE 5.8 mph - N/A   Clear
9:56 AM 64.9 °F 44.1 °F 47% 29.93 in 10.0 mi SSE 8.1 mph - N/A   Overcast
10:56 AM 66.0 °F 44.1 °F 45% 29.91 in 10.0 mi SSW 10.4 mph - N/A   Mostly Cloudy
12:56 PM 68.0 °F 42.1 °F 39% 29.86 in 10.0 mi SSW 11.5 mph - N/A   Scattered Clouds
1:56 PM 66.9 °F 41.0 °F 39% 29.85 in 10.0 mi SSW 11.5 mph - N/A   Clear
3:56 PM 66.0 °F 41.0 °F 40% 29.85 in 10.0 mi SSW 13.8 mph - N/A   Clear
4:56 PM 64.9 °F 39.0 °F 39% 29.86 in 10.0 mi SW 12.7 mph - N/A   Clear
5:56 PM 64.0 °F 37.0 °F 37% 29.87 in 10.0 mi SSW 8.1 mph - N/A   Clear
6:56 PM 63.0 °F 37.0 °F 38% 29.88 in 10.0 mi South 4.6 mph - N/A   Clear
7:56 PM 63.0 °F 37.0 °F 38% 29.89 in 10.0 mi SSW 6.9 mph - N/A   Clear
8:56 PM 61.0 °F 37.0 °F 41% 29.91 in 10.0 mi Calm Calm - N/A   Overcast
9:56 PM 61.0 °F 36.0 °F 39% 29.91 in 10.0 mi West 5.8 mph - N/A   Mostly Cloudy
10:56 PM 60.1 °F 36.0 °F 41% 29.90 in 10.0 mi West 5.8 mph - N/A   Mostly Cloudy
11:56 PM 57.9 °F 36.0 °F 44% 29.90 in 10.0 mi West 9.2 mph - N/A   Partly Cloudy